This is the latest recevied weather packets stored in our database for station/object W8LMG. If no packets are shown the sender has not sent any weather packets the latest 10 day(s).
| Time | Temp. | Humidity | Pressure | Rain* | Wind** | Luminosity | Snow |
|---|---|---|---|---|---|---|---|
| 1777844977 | 14.44° C | 29% | 1015.5 hPa | 0 mm | - | 258 W/m² | - |
| 1777844675 | 14.44° C | 30% | 1015.5 hPa | 0 mm | - | 272 W/m² | - |
| 1777844372 | 14.44° C | 31% | 1015.4 hPa | 0 mm | - | 286 W/m² | - |
| 1777844070 | 15° C | 33% | 1015.2 hPa | 0 mm | - | 301 W/m² | - |
| 1777843766 | 14.44° C | 33% | 1015.4 hPa | 0 mm | - | 314 W/m² | - |
| 1777843464 | 15.56° C | 27% | 1015.6 hPa | 0 mm | - | 330 W/m² | - |
| 1777843161 | 15° C | 26% | 1015.6 hPa | 0 mm | - | 343 W/m² | - |
| 1777842858 | 15° C | 30% | 1015.4 hPa | 0 mm | - | 357 W/m² | - |
| 1777842553 | 15° C | 32% | 1015.4 hPa | 0 mm | - | 371 W/m² | - |
| 1777842251 | 14.44° C | 30% | 1015.5 hPa | 0 mm | - | 385 W/m² | - |
| 1777841950 | 14.44° C | 33% | 1015.6 hPa | 0 mm | - | 398 W/m² | - |
| 1777841648 | 13.89° C | 26% | 1015.6 hPa | 0 mm | - | 410 W/m² | - |
| 1777841344 | 14.44° C | 27% | 1015.6 hPa | 0 mm | - | 423 W/m² | - |
| 1777841041 | 15° C | 26% | 1015.8 hPa | 0 mm | - | 438 W/m² | - |
| 1777840738 | 15° C | 26% | 1015.6 hPa | 0 mm | - | 449 W/m² | - |
| 1777840436 | 14.44° C | 27% | 1015.8 hPa | 0 mm | - | 462 W/m² | - |
| 1777840132 | 15° C | 29% | 1015.9 hPa | 0 mm | - | 475 W/m² | - |
| 1777839831 | 14.44° C | 34% | 1015.6 hPa | 0 mm | - | 487 W/m² | - |
| 1777839529 | 13.89° C | 32% | 1015.8 hPa | 0 mm | - | 499 W/m² | - |
| 1777839225 | 14.44° C | 27% | 1015.9 hPa | 0 mm | - | 511 W/m² | - |
| 1777838923 | 13.89° C | 29% | 1016.1 hPa | 0 mm | - | 524 W/m² | - |
| 1777838618 | 13.89° C | 27% | 1016.2 hPa | 0 mm | - | 534 W/m² | - |
| 1777838316 | 13.89° C | 27% | 1016.1 hPa | 0 mm | - | 545 W/m² | - |
| 1777838012 | 15° C | 27% | 1016.4 hPa | 0 mm | - | 557 W/m² | - |
| 1777837710 | 13.89° C | 32% | 1016.5 hPa | 0 mm | - | 567 W/m² | - |
* Rain latest hour (hover to see other rain measurements)
** Current wind speed in m/s (hover to see current wind gust speed)